Date,TemperatureHighF,TemperatureAvgF,TemperatureLowF,DewpointHighF,DewpointAvgF,DewpointLowF,HumidityHigh,HumidityAvg,HumidityLow,PressureMaxIn,PressureMinIn,WindSpeedMaxMPH,WindSpeedAvgMPH,GustSpeedMaxMPH,PrecipitationSumIn
2013-12-1,76.8,76.8,76.8,-99.9,-99.9,-99.9,0,0,100,30.09,30.09,2,2,4,0.00
2013-12-2,76.8,76.8,76.8,-99.9,-99.9,-99.9,0,0,100,30.09,30.09,2,2,4,0.00
2013-12-3,76.8,76.8,76.8,-99.9,-99.9,-99.9,0,0,100,30.09,30.09,2,2,4,0.00
2013-12-4,76.8,76.8,76.8,-99.9,-99.9,-99.9,0,0,100,30.09,30.09,2,2,4,0.00
2013-12-5,76.8,76.7,76.0,-99.9,-99.9,-99.9,0,0,100,30.11,30.06,7,3,15,0.00
2013-12-6,83.0,77.4,71.1,-99.9,-99.9,-99.9,0,0,100,30.15,30.07,8,2,14,0.00
2013-12-7,83.8,77.6,71.3,-99.9,-99.9,-99.9,0,0,100,30.16,30.10,7,4,14,0.00
2013-12-8,83.6,78.0,71.8,-99.9,-99.9,-99.9,0,0,100,30.18,30.09,10,4,18,0.00
2013-12-9,84.3,78.6,76.0,-99.9,-99.9,-99.9,0,0,100,30.16,30.07,6,3,13,0.00
2013-12-10,84.1,78.4,74.0,-99.9,-99.9,-99.9,0,0,100,30.12,30.04,4,2,10,0.00
2013-12-11,84.3,76.7,71.6,-99.9,-99.9,-99.9,0,0,100,30.16,30.09,4,1,9,0.00
2013-12-12,79.6,73.0,70.1,-99.9,-99.9,-99.9,0,0,100,30.18,30.10,12,5,19,0.00
2013-12-13,78.6,73.7,70.6,-99.9,-99.9,-99.9,0,0,100,30.16,30.06,9,7,17,0.00
2013-12-14,82.8,77.8,74.9,-99.9,-99.9,-99.9,0,0,100,30.07,29.95,9,4,14,0.00
2013-12-15,84.5,77.1,71.1,-99.9,-99.9,-99.9,0,0,100,30.02,29.89,9,4,15,0.00
2013-12-16,73.9,68.2,62.4,-99.9,-99.9,-99.9,0,0,100,30.12,30.00,7,4,11,0.00
2013-12-17,77.7,68.2,59.0,-99.9,-99.9,-99.9,0,0,100,30.15,30.06,7,4,12,0.00
2013-12-18,77.0,66.8,60.2,-99.9,-99.9,-99.9,0,0,100,30.20,30.11,10,5,19,0.00
2013-12-19,78.6,71.9,62.3,-99.9,-99.9,-99.9,0,0,100,30.21,30.12,7,4,12,0.00
2013-12-20,81.4,77.4,73.5,-99.9,-99.9,-99.9,0,0,100,30.16,30.07,8,6,14,0.00
2013-12-21,83.4,78.3,76.3,-99.9,-99.9,-99.9,0,0,100,30.12,30.03,7,4,14,0.00
2013-12-22,83.6,78.7,74.6,-99.9,-99.9,-99.9,0,0,100,30.13,30.05,6,4,14,0.00
2013-12-23,84.0,78.2,70.3,-99.9,-99.9,-99.9,0,0,100,30.14,30.07,6,3,15,0.00
2013-12-24,83.4,72.4,67.3,-99.9,-99.9,-99.9,0,0,100,30.14,30.05,11,4,21,0.00
2013-12-25,77.2,73.4,71.1,-99.9,-99.9,-99.9,0,0,100,30.14,30.06,10,7,18,0.00
2013-12-26,79.4,75.3,72.1,-99.9,-99.9,-99.9,0,0,100,30.14,30.03,7,5,14,0.00
2013-12-27,81.6,76.6,74.7,-99.9,-99.9,-99.9,0,0,100,30.16,30.06,7,5,13,0.00
2013-12-28,80.5,76.6,74.9,-99.9,-99.9,-99.9,0,0,100,30.15,30.00,9,6,15,0.00
2013-12-29,81.4,77.6,74.7,-99.9,-99.9,-99.9,0,0,100,30.01,29.90,10,5,17,0.00
2013-12-30,78.5,73.2,69.6,-99.9,-99.9,-99.9,0,0,100,30.11,29.95,6,3,8,0.00
2013-12-31,79.0,72.9,67.8,-99.9,-99.9,-99.9,0,0,100,30.20,30.07,9,6,15,0.00